Flag for U.S.A. Weather past 2 weeks in Minot, North Dakota, U.S.A.

Now
53 °F

Clear.


Feels Like: 49 °F
Forecast: 48 / 62 °F
Wind: 12 mph from Southwest

Location: Minot International Airport

Current Time: Oct 22, 2014 at 7:30:31 AM

Latest Report: Oct 22, 2014 at 6:54 AM


Visibility: 10 mi

Pressure: 29.70 "Hg

Humidity: 72%

Dew point: 44 °F

Location of MinotLocation

Historic Weather in Minot — Graph

°F

Minot temperature yesterday

Maximum temperature yesterday: 73 °F (at 4:54 PM)
Minimum temperature yesterday: 45 °F (at 1:54 AM)
Average temperature yesterday: 58 °F

Past Weeks' High & Low Weather Summary

 TemperatureHumidityPressure
High73 °F (Oct 15, 3:54 PM)92% (Oct 18, 2:54 AM)30.33 "Hg (Oct 18, 2:54 AM)
Low26 °F (Oct 9, 7:54 AM)26% (Oct 20, 3:54 PM)29.46 "Hg (Oct 16, 12:54 AM)
Average50 °F60%29.92 "Hg
* Reported Oct 7 5:54 AM — Oct 22 5:54 AM, Minot, Weather by CustomWeather, © 2014

Note: Actual official high and low records may vary slightly from our data, if they occured in-between our weather recording intervals... More about our weather records

Advertising

Minot weather history for previous 24 hours

 ConditionsComfort  
Time TempWeatherWind HumidityBarometerVisibility
5:54 AM
Oct 22
56 °FClear.10 mph65%29.65 "Hg10 mi
4:54 AM56 °FClear.10 mph67%29.63 "Hg10 mi
3:54 AM59 °FClear.14 mph64%29.62 "Hg10 mi
2:54 AM63 °FClear.6 mph50%29.60 "Hg10 mi
1:54 AM64 °FClear.9 mph49%29.59 "Hg10 mi
12:54 AM65 °FClear.16 mph44%29.57 "Hg10 mi
11:54 PM
Oct 21
65 °FClear.21 mph42%29.57 "Hg10 mi
10:54 PM67 °FClear.20 mph44%29.57 "Hg10 mi
9:54 PM59 °FClear.9 mph62%29.60 "Hg10 mi
8:54 PM58 °FClear.8 mph62%29.61 "Hg10 mi
7:54 PM60 °FClear.6 mph56%29.62 "Hg10 mi
6:54 PM63 °FSunny.3 mph48%29.62 "Hg10 mi
5:54 PM72 °FSunny.10 mph35%29.62 "Hg10 mi
4:54 PM73 °FSunny.16 mph33%29.63 "Hg10 mi
3:54 PM72 °FSunny.16 mph34%29.64 "Hg10 mi
2:54 PM70 °FSunny.14 mph35%29.67 "Hg10 mi
1:54 PM67 °FSunny.13 mph37%29.70 "Hg10 mi
12:54 PM65 °FSunny.12 mph40%29.72 "Hg10 mi
11:54 AM61 °FSunny.13 mph42%29.76 "Hg10 mi
10:54 AM58 °FSunny.10 mph46%29.78 "Hg10 mi
9:54 AM52 °FSunny.7 mph59%29.80 "Hg10 mi
8:54 AM45 °FClear.6 mph71%29.82 "Hg9 mi
7:54 AM45 °FClear.6 mph68%29.83 "Hg10 mi
Weather by CustomWeather, © 2014

See weather overviewHow to use our weather pages